Regional Weather Roundup
Issued by NWS State College, PA

Home | Current Version | Previous Version | Text Only | Print | Product List | Glossary On
Versions: 1 2 3 4 5 6 7 8 9 10 11 12 13 14 15 16 17 18 19 20 21 22 23 24 25 26 27 28 29 30 31 32 33 34 35 36 37 38 39 40 41 42 43 44 45 46 47 48 49 50
565
ASUS41 KCTP 291103
RWRCTP

REGIONAL WEATHER ROUNDUP
NATIONAL WEATHER SERVICE STATE COLLEGE PA
700 AM EDT FRI APR 29 2016

Note: "fair" indicates few or no clouds below 12,000 feet with no
significant weather and/or obstructions to visibility.

* = STATION THAT DOES NOT REPORT PRECIPITATION /E.G. RAIN...SNOW...ETC/
    THUNDER OR FOG.

PAZ002>004-007>009-013>016-020>023-029>032-291200-
WESTERN PENNSYLVANIA

CITY           SKY/WX    TMP DP  RH WIND       PRES   REMARKS
ERIE           CLOUDY    45  41  86 NE6       29.99S
MEADVILLE      CLOUDY    42  42 100 SE5       29.97R
FRANKLIN*      CLOUDY    43  39  87 E5        30.00R
NEW CASTLE     CLOUDY    45  44  97 NE3       29.98S
BEAVER COUNTY  FOG       45  43  93 CALM      29.98  VSB 1/2
BUTLER*        CLOUDY    45  43  93 NE5       30.00R VSB 1
PITTSBURGH INT DRZL/FOG  46  44  93 NW5       29.97R VSB 1/4
PITTSBURGH     FOG       46  44  93 N3        29.97R VSB 1/4
INDIANA*       CLOUDY    46  46 100 E5        30.00R FOG
LATROBE        CLOUDY    48  48 100 CALM      29.97R FOG
WASHINGTON CO* CLOUDY    46  45  93 N3        29.98R VSB 1/2
$$

PAZ004>006-010>012-017>019-024>028-033>037-041-042-045-046-049>053-291200-
CENTRAL PENNSYLVANIA

CITY           SKY/WX    TMP DP  RH WIND       PRES   REMARKS
BRADFORD       CLOUDY    40  39  97 E6        29.98R FOG
DUBOIS         CLOUDY    41  39  93 E8        29.96S FOG
CLEARFIELD     LGT RAIN  42  40  92 E7        30.00R FOG
JOHNSTOWN      CLOUDY    42  39  89 SE5       29.96R FOG
ALTOONA        LGT RAIN  43  41  93 SE6       30.01R FOG
STATE COLLEGE  CLOUDY    43  41  93 NE7       30.01R FOG
WILLIAMSPORT   CLOUDY    46  38  73 SE13      30.05R
SELINSGROVE    CLOUDY    45  41  86 CALM      30.06R
FT INDIANTOWN  MIX PCPN  43  43 100 E8        30.06R
CAPITAL CITY   CLOUDY    46  42  86 E9        30.05R
HARRISBURG     DRIZZLE   45  42  89 E7        30.05R FOG
YORK           CLOUDY    44  43  96 NE5       30.04R FOG
$$

PAZ038>040-043-044-047-048-054-055-060>062-067>071-291200-
EASTERN PENNSYLVANIA

CITY           SKY/WX    TMP DP  RH WIND       PRES   REMARKS
SCRANTON       CLOUDY    46  43  89 CALM      30.04R
MOUNT POCONO   CLOUDY    41  38  89 E5        30.03R
ALLENTOWN      CLOUDY    46  42  86 CALM      30.08R FOG
QUAKERTOWN*    CLOUDY    45  41  87 CALM      30.08R
READING        CLOUDY    46  39  76 CALM      30.06R
LANCASTER      CLOUDY    43  42  97 E8        30.06R FOG
COATESVILLE    MIX PCPN  43  43 100 E3G12     30.07R
POTTSTOWN      CLOUDY    44  42  93 E5        30.08R FOG
BLUE BELL      CLOUDY    43  41  93 CALM      30.06R
DOYLESTOWN     CLOUDY    43  41  93 CALM      30.07R
WILLOW GROVE   NOT AVBL
NORTH PHILA    CLOUDY    47  43  86 NE6       30.09R
PHILADELPHIA   CLOUDY    47  41  80 NE9       30.07R
$$




USA.gov is the U.S. government's official web portal to all federal, state and local government web resources and services.